User: anonymous   Login
Location: Newark
(43.9494°N, 6.8108°E)
Time: 04:35:54
(UTC+00:00)
Language:

Envisat - Orbit

View from above orbital plane
View from above orbital plane
View from above satellite
View from above satellite

Ground track
Ground track

The orbit data is extracted from the following two-line orbital elements,

1 27386U 02009A   19295.69574446  .00000011  00000-0  17003-4 0  9995
2 27386  98.1449 310.2475 0001200  94.3235  23.3503 14.37960403924305
Epoch (UTC): 22 October 2019 16:41:52
Eccentricity: 0.0001200
inclination: 98.1449°
perigee height: 764 km
apogee height: 766 km
right ascension of ascending node: 310.2475°
argument of perigee: 94.3235°
revolutions per day: 14.37960403
mean anomaly at epoch: 23.3503°
orbit number at epoch: 92430

The dashed part of the orbit path shows where the satellite is in the earth's shadow,  

DLR